Regional Weather Roundup
Issued by NWS San Angelo, TX

Home | Current Version | Previous Version | Text Only | Print | Product List | Glossary On
Versions: 1 2 3 4 5 6 7 8 9 10 11 12 13 14 15 16 17 18 19 20 21 22 23 24 25 26 27 28 29 30 31 32 33 34 35 36 37 38 39 40 41 42 43 44 45 46 47 48 49 50
000
ASUS44 KSJT 040102
RWRSJT
WEST CENTRAL TEXAS REGIONAL WEATHER ROUNDUP
NATIONAL WEATHER SERVICE SAN ANGELO TX
700 PM CST SAT DEC 03 2016

NOTE: "FAIR" INDICATES FEW OR NO CLOUDS BELOW 12,000 FEET WITH NO
SIGNIFICANT WEATHER AND/OR OBSTRUCTIONS TO VISIBILITY.

TXZ049-054-064>066-071>073-076>078-098-099-113-114-127-128-139-140-
154-155-168>170-040200
...LOCATIONS ACROSS WEST CENTRAL TEXAS...

CITY           SKY/WX    TMP DP  RH WIND       PRES   REMARKS
SAN ANGELO     CLOUDY    47  45  93 N12       29.96R FOG
ABILENE        CLOUDY    45  45 100 N10       29.98R FOG     WCI  40
DYESS AFB      LGT RAIN  45  45 100 N8        29.97R
JUNCTION       CLOUDY    48  47  96 NE7       29.94R FOG
SWEETWATER     NOT AVBL
BROWNWOOD      NOT AVBL
COLEMAN        CLOUDY    47  46  95 N8        29.97R
SONORA         NOT AVBL
OZONA          CLOUDY    45  43  93 NE9       29.96R WCI  40
BRADY          NOT AVBL
$$

TEXAS PANHANDLE/OKLAHOMA PANHANDLE

CITY           SKY/WX    TMP DP  RH WIND       PRES   REMARKS
AMARILLO       CLOUDY    39  38  96 CALM      30.00R
BORGER         CLOUDY    39  39 100 CALM      30.01S FOG
CANADIAN       LGT RAIN  42  41  97 SE5       30.02F WCI  39
DALHART        MOCLDY    37  35  92 S9        29.96F WCI  30
DUMAS          CLOUDY    36  35  95 S6        29.98F WCI  31
GUYMON         NOT AVBL
HEREFORD       CLOUDY    40  39  96 CALM      30.00R
PAMPA          CLOUDY    41  39  95 SE3       30.00F FOG
PERRYTON       CLOUDY    42  40  95 S7        30.00S WCI  37
$$

SOUTHERN PANHANDLE/SOUTH PLAINS/ROLLING PLAINS

CITY           SKY/WX    TMP DP  RH WIND       PRES   REMARKS
LUBBOCK        LGT RAIN  41  39  93 CALM      29.99R
SNYDER         NOT AVBL
CHILDRESS      CLOUDY    44  42  93 E5        30.02F FOG
SEMINOLE       DRIZZLE   40  40  99 NE3       29.99F
$$

PERMIAN BASIN

CITY           SKY/WX    TMP DP  RH WIND       PRES   REMARKS
MIDLAND        CLOUDY    43  40  89 N6        29.99R FOG     WCI  39
ODESSA         CLOUDY    43  39  86 NE8       29.99S FOG     WCI  38
WINK           LGT RAIN  43  42  97 CALM      29.98S
$$

FAR WEST/SOUTHWEST MOUNTAINS/TRANS PECOS

CITY           SKY/WX    TMP DP  RH WIND       PRES   REMARKS
ALPINE         CLOUDY    37  37  98 NE5       30.03R WCI  34
DRYDEN           N/A     49  45  86 N14       29.93R
EL PASO        MOCLDY    47  38  71 N3        29.97R
FORT STOCKTON  CLOUDY    42  42 100 N10       29.98S WCI  36
GUADALUPE PASS LGT RAIN  33  33 100 NE24      29.95R VSB 1/4 WCI  20
MARFA          CLOUDY    38  35  89 N13       29.95R WCI  30
PECOS          RAIN      41  40  95 N7        30.00F WCI  36
$$

DALLAS/FORT WORTH METROPLEX

CITY           SKY/WX    TMP DP  RH WIND       PRES   REMARKS
DFW AIRPORT    CLOUDY    49  46  90 E15       29.95F
FTW MEACHAM    CLOUDY    49  46  90 NE9       29.96F
DAL-EXECUTIVE  CLOUDY    48  48 100 NE9       29.97S FOG
GRAND PRAIRIE  NOT AVBL
ADDISON        CLOUDY    48  48 100 NE6       29.99F FOG
MESQUITE       CLOUDY    46  46 100 NE5       29.98F FOG
LANCASTER      CLOUDY    49  47  92 NE6       29.99F FOG
$$

NORTH CENTRAL TEXAS

CITY           SKY/WX    TMP DP  RH WIND       PRES   REMARKS
SHRMAN/DENISON NOT AVBL
GAINESVILLE    CLOUDY    45  44  96 CALM      30.03S FOG
BRIDGEPORT     CLOUDY    47  47 100 NE5       30.00F FOG
DENTON         CLOUDY    47  46  97 NE10      29.98F FOG
WAXAHACHIE     CLOUDY    47  47 100 NE6       29.98F FOG
GRANBURY       CLOUDY    50  48  93 CALM      29.99R
$$

WESTERN NORTH TEXAS

CITY           SKY/WX    TMP DP  RH WIND       PRES   REMARKS
WICHITA FALLS  CLOUDY    45  44  97 E8        30.03R FOG
VERNON         CLOUDY    46  42  87 E6        30.03F
BRECKENRIDGE   NOT AVBL
COMANCHE       CLOUDY    47  47 100 NE7       29.97R
$$

CENTRAL AND SOUTH CENTRAL TEXAS

CITY           SKY/WX    TMP DP  RH WIND       PRES   REMARKS
AUSTIN/BERGSTM LGT RAIN  51  50  96 E16       29.81F
WACO           CLOUDY    50  49  96 E13       29.92F FOG
HILLSBORO      CLOUDY    49  48  97 NE13      29.93F FOG
TEMPLE         LGT RAIN  49  48  97 E16G25    29.87F
KILLEEN-GRAY   CLOUDY    48  48  98 NE13      29.90R
FORT HOOD      CLOUDY    48  48 100 N10       29.90R
GEORGETOWN     LGT RAIN  50  46  87 NE12      29.86F
LAGO VISTA     CLOUDY    50  49  97 N7        29.90R
SAN MARCOS     MOCLDY    52  48  87 NE16      29.84F
NEW BRAUNFELS  LGT RAIN  52  50  93 E9        29.83R
RANDOLPH AFB   CLOUDY    51  51 100 NE8       29.85R
SAN ANTONIO    CLOUDY    52  50  93 N7        29.86R
STINSON        CLOUDY    53  50  89 E10       29.82R
PLEASANTON     NOT AVBL
LA GRANGE      CLOUDY    52  51  96 NE6       29.88F
GIDDINGS       DRIZZLE   49  48  97 E8        29.93F
$$

EAST TEXAS

CITY           SKY/WX    TMP DP  RH WIND       PRES   REMARKS
PARIS          CLOUDY    46  43  87 E9        30.02F
CLARKSVILLE    NOT AVBL
TYLER          LGT RAIN  49  47  93 E9        29.96S
LONGVIEW       CLOUDY    49  48  97 E8        29.98S
PALESTINE      LGT RAIN  49  48  97 E8        29.93F
NACOGDOCHES    CLOUDY    48  45  87 NE5       29.93S
$$

TEXAS HILL COUNTRY AND EDWARDS PLATEAU

CITY           SKY/WX    TMP DP  RH WIND       PRES   REMARKS
LLANO          NOT AVBL
HORSESHOE BAY  CLOUDY    50  49  96 N6        29.92R
KERRVILLE      CLOUDY    49  47  95 N9        29.90R
FREDERICKSBRG  NOT AVBL
ROCKSPRINGS    NOT AVBL
HONDO          CLOUDY    56  54  93 W5        29.90R
UVALDE         CLOUDY    55  54  94 CALM      29.89R
DEL RIO        LGT RAIN  53  53 100 N7        29.90R FOG
$$

SOUTHEAST TEXAS

CITY           SKY/WX    TMP DP  RH WIND       PRES   REMARKS
COLLEGE STN    LGT RAIN  50  49  96 NE5       29.94R
CALDWELL       NOT AVBL
CROCKETT       NOT AVBL
BRENHAM        NOT AVBL
HUNTSVILLE     LGT RAIN  50  48  93 VRB5      29.92S
CONROE         CLOUDY    51  50  96 NE7       29.90S
HOUSTON BUSH   CLOUDY    53  51  93 N7        29.90S
HOUSTON HOBBY  CLOUDY    55  53  93 N10       29.89S
PERLAND        CLOUDY    57  54  89 N9        29.90R
WHARTON        LGT RAIN  53  52  97 N9        29.92R
$$

THE UPPER TEXAS COAST

CITY           SKY/WX    TMP DP  RH WIND       PRES   REMARKS
ORANGE         HVY RAIN N/A N/A N/A N3        29.88R
PORT ARTHUR    RAIN      55  53  93 NE7       29.85R FOG
GALVESTON      LGT RAIN  59  57  93 NW22      29.89R
ANGLETON       CLOUDY    57  55  93 N12       29.88R
BAY CITY       CLOUDY    56  55  97 N7        29.89R
$$

TEXAS COASTAL BEND, RIO GRANDE PLAINS DEEP SOUTH TEXAS

CITY           SKY/WX    TMP DP  RH WIND       PRES   REMARKS
VICTORIA       LGT RAIN  54  53  97 NE8       29.88F
BEEVILLE       RAIN      55  55 100 NE9       29.87S
ROCKPORT         N/A    N/A N/A N/A MISG      29.87R
PORT ARANSAS   CLOUDY    58  56  92 N18G24    29.86R
PORT LAVACA    NOT AVBL
CORPUS CHRISTI DRIZZLE   57  55  93 N16       29.86R
KINGSVILLE NAS CLOUDY    59  54  83 N16       29.86R
COTULLA        CLOUDY    56  53  90 S3        29.90R
LAREDO         LGT RAIN  57  55  93 NW9       29.84F
BROWNSVILLE    PTCLDY    78  73  84 S7        29.77R
PORT ISABEL    CLOUDY    78  73  84 SE6       29.77R HAZE
HEBBRONVILLE   CLOUDY    54  53  97 E8        29.86S FOG
MCALLEN        CLOUDY    69  60  73 N20G30    29.82R
WESLACO        NOT AVBL
FALFURRIAS     CLOUDY    59  56  89 N9G16     29.86S
EDINBURG       LGT RAIN  67  59  73 N17G23    29.82R
$$




USA.gov is the U.S. government's official web portal to all federal, state and local government web resources and services.